weather.gov     
National Weather Service

Terminal Aerodrome Forecast
NWS Homepage
This page is being discontinued on March 12, 2014.
The same data is available at this site. Please update your bookmarks.
Thank you, and we apologize for the inconvenience.
Please send an email to SR-SRH.Webmaster@noaa.gov with any concerns.


Current Version
Previous Version:    01  02  03  04  05  06  07  08  09  10  11  12  13  14  15  16  17  18  19  20  21  22  23  24  25  26  27  28  29  30  
   31  32  33  34  35  
[Printable]
386
FTAK31 PAFA 302330
TAFAOR
TAF
PAOR 302330Z 0100/0124 31017G29KT P6SM -SHRA SCT040 BKN045 BKN090
     FM010300 30006KT P6SM FEW040 SCT080 BKN200
     FM011000 VRB03KT P6SM FEW080 SCT200
     FM011400 VRB03KT 5SM BR FEW004 SCT200
     FM011900 VRB03KT P6SM SCT200=




386
FTAK31 PAFA 302330
TAFAOR
TAF
PAOR 302330Z 0100/0124 31017G29KT P6SM -SHRA SCT040 BKN045 BKN090
     FM010300 30006KT P6SM FEW040 SCT080 BKN200
     FM011000 VRB03KT P6SM FEW080 SCT200
     FM011400 VRB03KT 5SM BR FEW004 SCT200
     FM011900 VRB03KT P6SM SCT200=


U.S. Dept. of Commerce
NOAA National Weather Service
1325 East West Highway
Silver Spring, MD 20910
E-mail: w-nws.webmaster@noaa.gov
Page last modified: May 16, 2007
NATIONAL WEATHER SERVICE: for Safety, for Work, for Fun - FOR LIFE